Terminal Aerodrome Forecast
Issued by NWS

Home | Current Version | Previous Version | Text Only | Print | Product List | Glossary On
Versions: 1 2 3 4 5 6 7 8 9 10 11 12 13 14 15 16
000
FTAK31 PAJN 302300
TAFAWG
TAF
PAWG 302326Z 3100/3124 13007KT P6SM -SHRA SCT025 BKN050
     FM310900 12005KT 4SM BR BKN020 OVC040
     FM311500 06004KT 5SM -SHRA BR SCT025 OVC035
     FM311900 10005KT 6SM -RA BR BKN025 OVC040
      AMD LTD TO CLD VIS AND WIND 3106/3115=

USA.gov is the U.S. government's official web portal to all federal, state and local government web resources and services.